Tracking 18794 objects as of 22-September-2017
HD Live streaming from Space Station
objects crossing your sky now

CZ-2D DEB

Track CZ-2D DEB now!
10-day predictions


NORAD ID: 28742
Int'l Code: 2005-024F
Perigee: 519.5 km
Apogee: 679.0 km
Inclination: 97.7 °
Period: 96.5 minutes
Semi major axis: 6970 km
RCS: 0.0146 m2 (small)
Launch date: July 5, 2005
Source: People's Republic of China (PRC)
Launch site: Jiuquan Satellite Launch Center, China (JSC)

Note: This is SATELLITE DEBRIS
aabbcc
Your satellite tracking list
Your tracking list is empty





NASA's NSSDC Master Catalog

Two Line Element Set (TLE):
1 28742U 05024F   17264.38387396 +.00002458 +00000-0 +22010-3 0  9998
2 28742 097.6908 061.1260 0114403 258.9444 099.8892 14.91876357651029
Source of the keplerian elements: AFSPC